Time,TemperatureF,DewpointF,PressureIn,WindDirection,WindDirectionDegrees,WindSpeedMPH,WindSpeedGustMPH,Humidity,HourlyPrecipIn,Conditions,Clouds,dailyrainin,SolarRadiationWatts/m^2,SoftwareType,DateUTC
2013-10-03 00:04:00,57.2,41.2,30.14,SW,222,3.0,5.0,55,0.00,,,0.00,0.0,meteohub,2013-10-03 07:04:00,
2013-10-03 00:09:00,57.0,41.0,30.14,SW,234,1.0,8.0,55,0.00,,,0.00,0.0,meteohub,2013-10-03 07:09:00,
2013-10-03 00:14:00,57.0,41.0,30.14,SSW,206,2.0,8.0,55,0.00,,,0.00,0.0,meteohub,2013-10-03 07:14:00,
2013-10-03 00:19:00,57.0,41.0,30.14,SW,225,0.0,8.0,55,0.00,,,0.00,0.0,meteohub,2013-10-03 07:19:00,
2013-10-03 00:24:00,56.8,41.4,30.14,SSW,193,3.0,7.0,56,0.00,,,0.00,0.0,meteohub,2013-10-03 07:24:00,
2013-10-03 00:29:00,56.7,41.2,30.14,WSW,243,2.0,5.0,56,0.00,,,0.00,0.0,meteohub,2013-10-03 07:29:00,
2013-10-03 00:34:00,56.5,41.0,30.14,SW,234,0.0,6.0,56,0.00,,,0.00,0.0,meteohub,2013-10-03 07:34:00,
2013-10-03 00:39:00,56.5,41.0,30.14,SW,224,4.0,7.0,56,0.00,,,0.00,0.0,meteohub,2013-10-03 07:39:00,
2013-10-03 00:44:00,56.5,41.0,30.14,SSW,211,2.0,7.0,56,0.00,,,0.00,0.0,meteohub,2013-10-03 07:44:00,
2013-10-03 00:49:00,56.5,41.0,30.14,SW,230,3.0,5.0,56,0.00,,,0.00,0.0,meteohub,2013-10-03 07:49:00,
2013-10-03 00:54:00,56.5,41.0,30.14,SW,236,1.0,6.0,56,0.00,,,0.00,0.0,meteohub,2013-10-03 07:54:00,
2013-10-03 00:59:00,56.3,40.8,30.14,WNW,293,0.0,6.0,56,0.00,,,0.00,0.0,meteohub,2013-10-03 07:59:00,
2013-10-03 01:04:00,56.1,41.2,30.15,WSW,238,0.0,6.0,57,0.00,,,0.00,0.0,meteohub,2013-10-03 08:04:00,
2013-10-03 01:09:00,56.1,41.2,30.15,SW,225,5.0,6.0,57,0.00,,,0.00,0.0,meteohub,2013-10-03 08:09:00,
2013-10-03 01:15:00,56.1,41.2,30.15,SSW,209,3.0,7.0,57,0.00,,,0.00,0.0,meteohub,2013-10-03 08:15:00,
2013-10-03 01:20:00,56.1,41.2,30.15,SW,221,1.0,9.0,57,0.00,,,0.00,0.0,meteohub,2013-10-03 08:20:00,
2013-10-03 01:25:00,56.1,41.5,30.15,SW,233,4.0,12.0,58,0.00,,,0.00,0.0,meteohub,2013-10-03 08:25:00,
2013-10-03 01:30:00,56.1,41.5,30.15,SW,225,5.0,12.0,58,0.00,,,0.00,0.0,meteohub,2013-10-03 08:30:00,
2013-10-03 01:35:00,55.9,41.4,30.15,SW,225,4.0,12.0,58,0.00,,,0.00,0.0,meteohub,2013-10-03 08:35:00,
2013-10-03 01:40:00,55.8,41.7,30.15,SSW,209,2.0,8.0,59,0.00,,,0.00,0.0,meteohub,2013-10-03 08:40:00,
2013-10-03 01:45:00,55.6,41.5,30.15,SSW,208,0.0,7.0,59,0.00,,,0.00,0.0,meteohub,2013-10-03 08:45:00,
2013-10-03 01:50:00,55.4,41.7,30.16,SSW,208,0.0,4.0,60,0.00,,,0.00,0.0,meteohub,2013-10-03 08:50:00,
2013-10-03 01:55:00,55.2,41.5,30.15,SSW,209,0.0,3.0,60,0.00,,,0.00,0.0,meteohub,2013-10-03 08:55:00,
2013-10-03 02:00:00,55.0,41.4,30.15,SSW,208,0.0,2.0,60,0.00,,,0.00,0.0,meteohub,2013-10-03 09:00:00,
2013-10-03 02:05:00,54.7,41.5,30.16,SSW,209,1.0,2.0,61,0.00,,,0.00,0.0,meteohub,2013-10-03 09:05:00,
2013-10-03 02:10:00,54.5,41.4,30.16,SSW,202,0.0,3.0,61,0.00,,,0.00,0.0,meteohub,2013-10-03 09:10:00,
2013-10-03 02:15:00,54.3,41.2,30.16,SSW,202,0.0,3.0,61,0.00,,,0.00,0.0,meteohub,2013-10-03 09:15:00,
2013-10-03 02:20:00,54.3,41.5,30.16,SSW,202,0.0,3.0,62,0.00,,,0.00,0.0,meteohub,2013-10-03 09:20:00,
2013-10-03 02:25:00,54.3,41.2,30.16,SSW,202,0.0,1.0,61,0.00,,,0.00,0.0,meteohub,2013-10-03 09:25:00,
2013-10-03 02:30:00,54.1,41.4,30.16,SSW,202,0.0,1.0,62,0.00,,,0.00,0.0,meteohub,2013-10-03 09:30:00,
2013-10-03 02:35:00,54.0,41.2,30.16,SSW,202,0.0,1.0,62,0.00,,,0.00,0.0,meteohub,2013-10-03 09:35:00,
2013-10-03 02:40:00,53.8,41.0,30.16,SSW,202,0.0,1.0,62,0.00,,,0.00,0.0,meteohub,2013-10-03 09:40:00,
2013-10-03 02:45:00,53.6,41.4,30.16,SW,225,0.0,1.0,63,0.00,,,0.00,0.0,meteohub,2013-10-03 09:45:00,
2013-10-03 02:50:00,53.6,41.4,30.16,SW,225,0.0,4.0,63,0.00,,,0.00,0.0,meteohub,2013-10-03 09:50:00,
2013-10-03 02:55:00,53.6,41.4,30.16,SSW,207,0.0,4.0,63,0.00,,,0.00,0.0,meteohub,2013-10-03 09:55:00,
2013-10-03 03:01:00,53.6,41.4,30.16,SW,219,0.0,3.0,63,0.00,,,0.00,0.0,meteohub,2013-10-03 10:01:00,
2013-10-03 03:06:00,53.8,41.5,30.16,SSW,209,1.0,3.0,63,0.00,,,0.00,0.0,meteohub,2013-10-03 10:06:00,
2013-10-03 03:11:00,53.8,41.5,30.16,SSW,209,0.0,3.0,63,0.00,,,0.00,0.0,meteohub,2013-10-03 10:11:00,
2013-10-03 03:16:00,53.8,41.5,30.16,SSW,209,1.0,3.0,63,0.00,,,0.00,0.0,meteohub,2013-10-03 10:16:00,
2013-10-03 03:21:00,53.6,41.4,30.17,SSW,198,0.0,3.0,63,0.00,,,0.00,0.0,meteohub,2013-10-03 10:21:00,
2013-10-03 03:26:00,53.4,41.2,30.17,SSW,198,0.0,3.0,63,0.00,,,0.00,0.0,meteohub,2013-10-03 10:26:00,
2013-10-03 03:31:00,53.4,41.2,30.16,SSW,198,1.0,3.0,63,0.00,,,0.00,0.0,meteohub,2013-10-03 10:31:00,
2013-10-03 03:36:00,53.2,41.4,30.16,SSW,198,0.0,2.0,64,0.00,,,0.00,0.0,meteohub,2013-10-03 10:36:00,
2013-10-03 03:41:00,53.2,41.7,30.16,SW,216,1.0,3.0,65,0.00,,,0.00,0.0,meteohub,2013-10-03 10:41:00,
2013-10-03 03:46:00,53.1,41.5,30.16,SW,215,0.0,3.0,65,0.00,,,0.00,0.0,meteohub,2013-10-03 10:46:00,
2013-10-03 03:51:00,53.1,41.5,30.16,SW,215,0.0,3.0,65,0.00,,,0.00,0.0,meteohub,2013-10-03 10:51:00,
2013-10-03 03:56:00,53.2,41.7,30.16,SW,216,0.0,3.0,65,0.00,,,0.00,0.0,meteohub,2013-10-03 10:56:00,
2013-10-03 04:01:00,53.2,41.7,30.16,SW,215,0.0,1.0,65,0.00,,,0.00,0.0,meteohub,2013-10-03 11:01:00,
2013-10-03 04:06:00,53.2,41.7,30.17,SW,215,0.0,2.0,65,0.00,,,0.00,0.0,meteohub,2013-10-03 11:06:00,
2013-10-03 04:11:00,53.2,41.7,30.17,SW,215,0.0,2.0,65,0.00,,,0.00,0.0,meteohub,2013-10-03 11:11:00,
2013-10-03 04:16:00,53.1,41.5,30.17,SW,215,0.0,1.0,65,0.00,,,0.00,0.0,meteohub,2013-10-03 11:16:00,
2013-10-03 04:21:00,53.1,41.5,30.17,SW,215,0.0,1.0,65,0.00,,,0.00,0.0,meteohub,2013-10-03 11:21:00,
2013-10-03 04:26:00,53.1,41.5,30.17,SW,215,0.0,1.0,65,0.00,,,0.00,0.0,meteohub,2013-10-03 11:26:00,
2013-10-03 04:31:00,52.9,41.4,30.17,SW,215,0.0,1.0,65,0.00,,,0.00,0.0,meteohub,2013-10-03 11:31:00,
2013-10-03 04:37:00,52.7,41.2,30.17,SW,215,0.0,1.0,65,0.00,,,0.00,0.0,meteohub,2013-10-03 11:37:00,
2013-10-03 04:42:00,52.3,41.0,30.17,SW,215,0.0,0.0,65,0.00,,,0.00,0.0,meteohub,2013-10-03 11:42:00,
2013-10-03 04:47:00,52.3,41.0,30.16,SW,215,0.0,0.0,65,0.00,,,0.00,0.0,meteohub,2013-10-03 11:47:00,
2013-10-03 04:52:00,52.0,41.0,30.16,SW,215,0.0,0.0,66,0.00,,,0.00,0.0,meteohub,2013-10-03 11:52:00,
2013-10-03 04:57:00,51.6,40.6,30.16,SW,215,0.0,0.0,66,0.00,,,0.00,0.0,meteohub,2013-10-03 11:57:00,
2013-10-03 05:02:00,51.4,40.8,30.16,SW,215,0.0,0.0,67,0.00,,,0.00,0.0,meteohub,2013-10-03 12:02:00,
2013-10-03 05:07:00,51.3,40.6,30.16,SW,215,0.0,0.0,67,0.00,,,0.00,0.0,meteohub,2013-10-03 12:07:00,
2013-10-03 05:12:00,51.1,40.8,30.16,SW,215,0.0,0.0,68,0.00,,,0.00,0.0,meteohub,2013-10-03 12:12:00,
2013-10-03 05:17:00,50.7,40.5,30.16,SW,215,0.0,0.0,68,0.00,,,0.00,0.0,meteohub,2013-10-03 12:17:00,
2013-10-03 05:22:00,50.7,41.0,30.16,SW,215,0.0,0.0,69,0.00,,,0.00,0.0,meteohub,2013-10-03 12:22:00,
2013-10-03 05:27:00,50.5,40.8,30.17,SW,215,0.0,1.0,69,0.00,,,0.00,0.0,meteohub,2013-10-03 12:27:00,
2013-10-03 05:32:00,50.4,40.6,30.16,SW,215,0.0,1.0,69,0.00,,,0.00,0.0,meteohub,2013-10-03 12:32:00,
2013-10-03 05:37:00,50.2,40.5,30.17,SW,215,0.0,1.0,69,0.00,,,0.00,0.0,meteohub,2013-10-03 12:37:00,
2013-10-03 05:42:00,50.0,40.6,30.17,SW,215,0.0,0.0,70,0.00,,,0.00,0.0,meteohub,2013-10-03 12:42:00,
2013-10-03 05:47:00,49.8,40.5,30.17,SW,215,0.0,0.0,70,0.00,,,0.00,0.0,meteohub,2013-10-03 12:47:00,
2013-10-03 05:52:00,49.8,40.8,30.16,SW,215,0.0,0.0,71,0.00,,,0.00,0.0,meteohub,2013-10-03 12:52:00,
2013-10-03 05:57:00,49.6,40.6,30.17,SW,215,0.0,0.0,71,0.00,,,0.00,0.0,meteohub,2013-10-03 12:57:00,
2013-10-03 06:02:00,49.6,40.6,30.17,SW,215,0.0,0.0,71,0.00,,,0.00,0.0,meteohub,2013-10-03 13:02:00,
2013-10-03 06:07:00,49.6,41.0,30.17,SW,215,0.0,0.0,72,0.00,,,0.00,0.0,meteohub,2013-10-03 13:07:00,
2013-10-03 06:12:00,49.5,40.8,30.17,SW,215,0.0,0.0,72,0.00,,,0.00,0.0,meteohub,2013-10-03 13:12:00,
2013-10-03 06:17:00,49.6,41.0,30.17,SW,215,0.0,0.0,72,0.00,,,0.00,0.0,meteohub,2013-10-03 13:17:00,
2013-10-03 06:22:00,49.6,41.0,30.17,SW,215,0.0,0.0,72,0.00,,,0.00,0.0,meteohub,2013-10-03 13:22:00,
2013-10-03 06:28:00,49.6,41.0,30.17,SW,215,0.0,0.0,72,0.00,,,0.00,0.0,meteohub,2013-10-03 13:28:00,
2013-10-03 06:33:00,49.6,41.0,30.17,SW,215,0.0,0.0,72,0.00,,,0.00,0.0,meteohub,2013-10-03 13:33:00,
2013-10-03 06:38:00,49.8,41.2,30.18,SW,215,0.0,0.0,72,0.00,,,0.00,0.0,meteohub,2013-10-03 13:38:00,
2013-10-03 06:43:00,49.8,41.2,30.17,SW,215,0.0,2.0,72,0.00,,,0.00,0.0,meteohub,2013-10-03 13:43:00,
2013-10-03 06:48:00,50.0,41.4,30.17,SW,215,0.0,2.0,72,0.00,,,0.00,0.0,meteohub,2013-10-03 13:48:00,
2013-10-03 06:53:00,50.2,41.2,30.17,SW,215,0.0,2.0,71,0.00,,,0.00,0.0,meteohub,2013-10-03 13:53:00,
2013-10-03 06:58:00,50.2,41.2,30.17,SW,215,0.0,2.0,71,0.00,,,0.00,0.0,meteohub,2013-10-03 13:58:00,
2013-10-03 07:03:00,50.2,41.2,30.17,SW,215,0.0,2.0,71,0.00,,,0.00,0.0,meteohub,2013-10-03 14:03:00,
2013-10-03 07:08:00,50.0,41.0,30.17,SW,215,0.0,1.0,71,0.00,,,0.00,0.0,meteohub,2013-10-03 14:08:00,
2013-10-03 07:13:00,49.8,41.2,30.18,SW,215,0.0,0.0,72,0.00,,,0.00,0.0,meteohub,2013-10-03 14:13:00,
2013-10-03 07:18:00,49.8,41.2,30.18,SW,215,0.0,0.0,72,0.00,,,0.00,5.0,meteohub,2013-10-03 14:18:00,
2013-10-03 07:23:00,49.6,41.0,30.18,SW,215,0.0,0.0,72,0.00,,,0.00,7.0,meteohub,2013-10-03 14:23:00,
2013-10-03 07:28:00,49.6,41.0,30.18,SW,215,0.0,0.0,72,0.00,,,0.00,7.0,meteohub,2013-10-03 14:28:00,
2013-10-03 07:33:00,49.6,41.4,30.18,SW,215,0.0,1.0,73,0.00,,,0.00,9.0,meteohub,2013-10-03 14:33:00,
2013-10-03 07:38:00,49.6,41.4,30.18,SW,215,0.0,1.0,73,0.00,,,0.00,11.0,meteohub,2013-10-03 14:38:00,
2013-10-03 07:43:00,49.8,41.5,30.19,SW,215,0.0,1.0,73,0.00,,,0.00,11.0,meteohub,2013-10-03 14:43:00,
2013-10-03 07:48:00,49.8,41.5,30.19,SW,215,0.0,1.0,73,0.00,,,0.00,11.0,meteohub,2013-10-03 14:48:00,
2013-10-03 07:54:00,49.8,41.2,30.19,SW,215,0.0,1.0,72,0.00,,,0.00,12.0,meteohub,2013-10-03 14:54:00,
2013-10-03 07:59:00,50.2,41.5,30.19,SW,215,0.0,1.0,72,0.00,,,0.00,12.0,meteohub,2013-10-03 14:59:00,
2013-10-03 08:04:00,50.4,41.7,30.19,SW,215,1.0,1.0,72,0.00,,,0.00,12.0,meteohub,2013-10-03 15:04:00,
2013-10-03 08:09:00,50.5,41.5,30.19,SW,215,0.0,1.0,71,0.00,,,0.00,12.0,meteohub,2013-10-03 15:09:00,
2013-10-03 08:14:00,50.7,41.7,30.19,SW,215,0.0,2.0,71,0.00,,,0.00,14.0,meteohub,2013-10-03 15:14:00,
2013-10-03 08:19:00,50.9,41.9,30.19,SW,215,0.0,2.0,71,0.00,,,0.00,14.0,meteohub,2013-10-03 15:19:00,
2013-10-03 08:24:00,51.1,41.7,30.20,SW,215,0.0,1.0,70,0.00,,,0.00,14.0,meteohub,2013-10-03 15:24:00,
2013-10-03 08:29:00,51.3,41.9,30.20,SW,215,0.0,1.0,70,0.00,,,0.00,14.0,meteohub,2013-10-03 15:29:00,
2013-10-03 08:34:00,51.4,41.5,30.20,SW,215,0.0,1.0,69,0.00,,,0.00,16.0,meteohub,2013-10-03 15:34:00,
2013-10-03 08:39:00,51.6,41.7,30.20,SW,215,0.0,1.0,69,0.00,,,0.00,16.0,meteohub,2013-10-03 15:39:00,
2013-10-03 08:44:00,52.0,41.7,30.20,SW,215,0.0,1.0,68,0.00,,,0.00,30.0,meteohub,2013-10-03 15:44:00,
2013-10-03 08:49:00,52.0,41.7,30.20,SW,215,0.0,1.0,68,0.00,,,0.00,19.0,meteohub,2013-10-03 15:49:00,
2013-10-03 08:54:00,52.3,42.1,30.20,SW,215,0.0,1.0,68,0.00,,,0.00,18.0,meteohub,2013-10-03 15:54:00,
2013-10-03 08:59:00,52.5,41.9,30.20,SW,215,0.0,1.0,67,0.00,,,0.00,18.0,meteohub,2013-10-03 15:59:00,
2013-10-03 09:04:00,53.1,42.1,30.20,SW,215,0.0,1.0,66,0.00,,,0.00,18.0,meteohub,2013-10-03 16:04:00,
2013-10-03 09:09:00,53.2,42.3,30.20,SW,215,0.0,2.0,66,0.00,,,0.00,18.0,meteohub,2013-10-03 16:09:00,
2013-10-03 09:14:00,53.8,42.3,30.20,SW,215,0.0,2.0,65,0.00,,,0.00,21.0,meteohub,2013-10-03 16:14:00,
2013-10-03 09:19:00,54.1,42.3,30.20,SW,215,0.0,2.0,64,0.00,,,0.00,19.0,meteohub,2013-10-03 16:19:00,
2013-10-03 09:24:00,54.5,42.1,30.20,SW,215,0.0,1.0,63,0.00,,,0.00,19.0,meteohub,2013-10-03 16:24:00,
2013-10-03 09:29:00,54.7,42.3,30.20,SW,215,0.0,2.0,63,0.00,,,0.00,21.0,meteohub,2013-10-03 16:29:00,
2013-10-03 09:34:00,54.9,41.7,30.20,SW,215,0.0,2.0,61,0.00,,,0.00,21.0,meteohub,2013-10-03 16:34:00,
2013-10-03 09:39:00,55.2,41.2,30.20,SW,215,0.0,2.0,59,0.00,,,0.00,21.0,meteohub,2013-10-03 16:39:00,
2013-10-03 09:44:00,55.6,40.6,30.20,SW,234,1.0,2.0,57,0.00,,,0.00,23.0,meteohub,2013-10-03 16:44:00,
2013-10-03 09:49:00,56.5,41.0,30.20,SE,133,0.0,1.0,56,0.00,,,0.00,23.0,meteohub,2013-10-03 16:49:00,
2013-10-03 09:55:00,57.0,40.1,30.21,SE,133,0.0,4.0,53,0.00,,,0.00,23.0,meteohub,2013-10-03 16:55:00,
2013-10-03 10:00:00,57.7,40.3,30.21,NW,308,3.0,4.0,52,0.00,,,0.00,25.0,meteohub,2013-10-03 17:00:00,
2013-10-03 10:05:00,58.1,39.6,30.20,East,81,0.0,5.0,50,0.00,,,0.00,26.0,meteohub,2013-10-03 17:05:00,
2013-10-03 10:10:00,58.8,39.7,30.20,East,80,1.0,5.0,49,0.00,,,0.00,28.0,meteohub,2013-10-03 17:10:00,
2013-10-03 10:15:00,59.5,39.9,30.20,ESE,106,0.0,3.0,48,0.00,,,0.00,28.0,meteohub,2013-10-03 17:15:00,
2013-10-03 10:20:00,59.9,39.0,30.21,SE,142,2.0,3.0,46,0.00,,,0.00,30.0,meteohub,2013-10-03 17:20:00,
2013-10-03 10:25:00,60.3,38.8,30.21,WNW,296,2.0,3.0,45,0.00,,,0.00,32.0,meteohub,2013-10-03 17:25:00,
2013-10-03 10:30:00,60.6,39.7,30.20,SSE,154,0.0,3.0,46,0.00,,,0.00,33.0,meteohub,2013-10-03 17:30:00,
2013-10-03 10:35:00,61.2,37.9,30.20,SE,130,0.0,3.0,42,0.00,,,0.00,35.0,meteohub,2013-10-03 17:35:00,
2013-10-03 10:40:00,61.5,38.3,30.20,ENE,72,0.0,3.0,42,0.00,,,0.00,37.0,meteohub,2013-10-03 17:40:00,
2013-10-03 10:45:00,61.9,38.5,30.20,ENE,71,0.0,3.0,42,0.00,,,0.00,37.0,meteohub,2013-10-03 17:45:00,
2013-10-03 10:50:00,62.1,38.7,30.20,ENE,71,1.0,3.0,42,0.00,,,0.00,51.0,meteohub,2013-10-03 17:50:00,
2013-10-03 10:55:00,62.4,36.5,30.20,East,80,2.0,4.0,38,0.00,,,0.00,197.0,meteohub,2013-10-03 17:55:00,
2013-10-03 11:00:00,62.8,35.4,30.19,ENE,61,2.0,5.0,36,0.00,,,0.00,473.0,meteohub,2013-10-03 18:00:00,
2013-10-03 11:05:00,63.1,34.3,30.19,East,88,3.0,5.0,34,0.00,,,0.00,612.0,meteohub,2013-10-03 18:05:00,
2013-10-03 11:10:00,63.7,34.7,30.19,East,90,2.0,5.0,34,0.00,,,0.00,626.0,meteohub,2013-10-03 18:10:00,
2013-10-03 11:15:00,64.2,34.5,30.19,ENE,78,3.0,6.0,33,0.00,,,0.00,635.0,meteohub,2013-10-03 18:15:00,
2013-10-03 11:20:00,64.6,34.0,30.19,East,84,0.0,6.0,32,0.00,,,0.00,645.0,meteohub,2013-10-03 18:20:00,
2013-10-03 11:25:00,64.9,34.3,30.19,WSW,250,1.0,7.0,32,0.00,,,0.00,652.0,meteohub,2013-10-03 18:25:00,
2013-10-03 11:30:00,65.3,35.4,30.18,SW,219,3.0,7.0,33,0.00,,,0.00,661.0,meteohub,2013-10-03 18:30:00,
2013-10-03 11:35:00,65.5,34.0,30.18,ENE,76,3.0,7.0,31,0.00,,,0.00,666.0,meteohub,2013-10-03 18:35:00,
2013-10-03 11:40:00,65.5,34.0,30.18,ENE,67,1.0,5.0,31,0.00,,,0.00,677.0,meteohub,2013-10-03 18:40:00,
2013-10-03 11:45:00,65.7,34.2,30.18,ENE,72,2.0,5.0,31,0.00,,,0.00,684.0,meteohub,2013-10-03 18:45:00,
2013-10-03 11:50:00,66.0,34.5,30.18,ENE,67,0.0,5.0,31,0.00,,,0.00,689.0,meteohub,2013-10-03 18:50:00,
2013-10-03 11:55:00,66.6,35.1,30.18,ENE,69,0.0,5.0,31,0.00,,,0.00,696.0,meteohub,2013-10-03 18:55:00,
2013-10-03 12:01:00,67.1,33.8,30.18,ESE,118,3.0,5.0,29,0.00,,,0.00,701.0,meteohub,2013-10-03 19:01:00,
2013-10-03 12:06:00,67.3,34.0,30.18,ENE,72,3.0,7.0,29,0.00,,,0.00,707.0,meteohub,2013-10-03 19:06:00,
2013-10-03 12:11:00,67.3,34.0,30.17,SSE,161,3.0,7.0,29,0.00,,,0.00,714.0,meteohub,2013-10-03 19:11:00,
2013-10-03 12:16:00,67.8,34.3,30.17,ENE,78,5.0,7.0,29,0.00,,,0.00,719.0,meteohub,2013-10-03 19:16:00,
2013-10-03 12:21:00,68.0,33.6,30.17,East,99,2.0,7.0,28,0.00,,,0.00,724.0,meteohub,2013-10-03 19:21:00,
2013-10-03 12:26:00,68.2,33.8,30.17,ESE,111,0.0,7.0,28,0.00,,,0.00,726.0,meteohub,2013-10-03 19:26:00,
2013-10-03 12:31:00,68.2,33.8,30.17,SW,234,1.0,7.0,28,0.00,,,0.00,731.0,meteohub,2013-10-03 19:31:00,
2013-10-03 12:36:00,69.1,34.5,30.17,WNW,300,2.0,7.0,28,0.00,,,0.00,737.0,meteohub,2013-10-03 19:36:00,
2013-10-03 12:41:00,68.9,33.6,30.17,East,85,2.0,9.0,27,0.00,,,0.00,738.0,meteohub,2013-10-03 19:41:00,
2013-10-03 12:46:00,68.5,34.2,30.16,ENE,73,4.0,9.0,28,0.00,,,0.00,742.0,meteohub,2013-10-03 19:46:00,
2013-10-03 12:51:00,68.5,34.2,30.15,North,5,0.0,9.0,28,0.00,,,0.00,742.0,meteohub,2013-10-03 19:51:00,
2013-10-03 12:56:00,69.1,34.5,30.16,ESE,123,2.0,8.0,28,0.00,,,0.00,742.0,meteohub,2013-10-03 19:56:00,
2013-10-03 13:01:00,69.3,33.8,30.15,North,355,1.0,8.0,27,0.00,,,0.00,744.0,meteohub,2013-10-03 20:01:00,
2013-10-03 13:06:00,69.3,32.9,30.15,WSW,237,2.0,8.0,26,0.00,,,0.00,745.0,meteohub,2013-10-03 20:06:00,
2013-10-03 13:11:00,69.4,34.0,30.14,East,82,0.0,8.0,27,0.00,,,0.00,744.0,meteohub,2013-10-03 20:11:00,
2013-10-03 13:16:00,70.2,34.7,30.14,ENE,67,0.0,8.0,27,0.00,,,0.00,740.0,meteohub,2013-10-03 20:16:00,
2013-10-03 13:21:00,70.9,34.3,30.14,WNW,285,1.0,7.0,26,0.00,,,0.00,744.0,meteohub,2013-10-03 20:21:00,
2013-10-03 13:26:00,71.2,32.5,30.14,SSE,167,0.0,7.0,24,0.00,,,0.00,742.0,meteohub,2013-10-03 20:26:00,
2013-10-03 13:32:00,71.8,33.1,30.14,ENE,67,4.0,5.0,24,0.00,,,0.00,740.0,meteohub,2013-10-03 20:32:00,
2013-10-03 13:37:00,71.6,31.8,30.13,ENE,67,1.0,5.0,23,0.00,,,0.00,737.0,meteohub,2013-10-03 20:37:00,
2013-10-03 13:42:00,71.8,33.1,30.13,NNW,346,0.0,7.0,24,0.00,,,0.00,733.0,meteohub,2013-10-03 20:42:00,
2013-10-03 13:47:00,71.8,30.9,30.12,WSW,247,1.0,9.0,22,0.00,,,0.00,733.0,meteohub,2013-10-03 20:47:00,
2013-10-03 13:52:00,71.8,29.7,30.12,ESE,121,4.0,9.0,21,0.00,,,0.00,729.0,meteohub,2013-10-03 20:52:00,
2013-10-03 13:57:00,71.8,30.9,30.12,ENE,78,2.0,9.0,22,0.00,,,0.00,726.0,meteohub,2013-10-03 20:57:00,
2013-10-03 14:02:00,72.1,27.7,30.12,ENE,67,3.0,7.0,19,0.00,,,0.00,719.0,meteohub,2013-10-03 21:02:00,
2013-10-03 14:07:00,72.0,28.8,30.12,ENE,66,1.0,9.0,20,0.00,,,0.00,717.0,meteohub,2013-10-03 21:07:00,
2013-10-03 14:12:00,72.0,28.8,30.12,SSE,152,4.0,9.0,20,0.00,,,0.00,714.0,meteohub,2013-10-03 21:12:00,
2013-10-03 14:17:00,72.0,27.5,30.12,ENE,63,4.0,9.0,19,0.00,,,0.00,708.0,meteohub,2013-10-03 21:17:00,
2013-10-03 14:22:00,72.0,28.8,30.12,ENE,65,4.0,8.0,20,0.00,,,0.00,703.0,meteohub,2013-10-03 21:22:00,
2013-10-03 14:27:00,72.1,28.8,30.12,ENE,72,2.0,8.0,20,0.00,,,0.00,696.0,meteohub,2013-10-03 21:27:00,
2013-10-03 14:32:00,73.0,28.4,30.11,ENE,72,3.0,8.0,19,0.00,,,0.00,689.0,meteohub,2013-10-03 21:32:00,
2013-10-03 14:38:00,73.0,27.0,30.11,NW,322,2.0,8.0,18,0.00,,,0.00,682.0,meteohub,2013-10-03 21:38:00,
2013-10-03 14:43:00,73.2,28.4,30.11,SW,232,4.0,9.0,19,0.00,,,0.00,675.0,meteohub,2013-10-03 21:43:00,
2013-10-03 14:48:00,73.8,28.9,30.11,NNW,329,1.0,11.0,19,0.00,,,0.00,663.0,meteohub,2013-10-03 21:48:00,
2013-10-03 14:53:00,74.1,29.3,30.11,SSW,208,1.0,11.0,19,0.00,,,0.00,659.0,meteohub,2013-10-03 21:53:00,
2013-10-03 14:58:00,74.7,29.7,30.11,ENE,69,1.0,9.0,19,0.00,,,0.00,645.0,meteohub,2013-10-03 21:58:00,
2013-10-03 15:04:00,74.7,28.4,30.11,East,92,2.0,9.0,18,0.00,,,0.00,638.0,meteohub,2013-10-03 22:04:00,
2013-10-03 15:09:00,74.3,28.0,30.11,South,178,1.0,5.0,18,0.00,,,0.00,628.0,meteohub,2013-10-03 22:09:00,
2013-10-03 15:14:00,74.1,27.9,30.11,East,81,3.0,7.0,18,0.00,,,0.00,613.0,meteohub,2013-10-03 22:14:00,
2013-10-03 15:19:00,73.9,29.1,30.11,SE,129,1.0,7.0,19,0.00,,,0.00,605.0,meteohub,2013-10-03 22:19:00,
2013-10-03 15:24:00,74.1,30.6,30.11,ENE,58,0.0,9.0,20,0.00,,,0.00,596.0,meteohub,2013-10-03 22:24:00,
2013-10-03 15:29:00,73.9,29.1,30.11,WNW,292,2.0,9.0,19,0.00,,,0.00,585.0,meteohub,2013-10-03 22:29:00,
2013-10-03 15:34:00,73.9,29.1,30.10,NNW,331,2.0,9.0,19,0.00,,,0.00,573.0,meteohub,2013-10-03 22:34:00,
2013-10-03 15:39:00,74.3,30.6,30.10,NNW,339,0.0,9.0,20,0.00,,,0.00,563.0,meteohub,2013-10-03 22:39:00,
2013-10-03 15:44:00,74.5,29.5,30.10,ENE,68,0.0,9.0,19,0.00,,,0.00,550.0,meteohub,2013-10-03 22:44:00,
2013-10-03 15:49:00,74.5,29.5,30.10,ENE,62,1.0,9.0,19,0.00,,,0.00,540.0,meteohub,2013-10-03 22:49:00,
2013-10-03 15:54:00,74.1,29.3,30.10,ESE,104,2.0,7.0,19,0.00,,,0.00,524.0,meteohub,2013-10-03 22:54:00,
2013-10-03 15:59:00,73.9,29.1,30.10,ENE,76,7.0,7.0,19,0.00,,,0.00,513.0,meteohub,2013-10-03 22:59:00,
2013-10-03 16:04:00,73.9,29.1,30.09,NW,312,7.0,9.0,19,0.00,,,0.00,503.0,meteohub,2013-10-03 23:04:00,
2013-10-03 16:09:00,73.9,29.1,30.10,NW,306,5.0,9.0,19,0.00,,,0.00,489.0,meteohub,2013-10-03 23:09:00,
2013-10-03 16:14:00,73.9,30.4,30.10,NNW,327,1.0,9.0,20,0.00,,,0.00,475.0,meteohub,2013-10-03 23:14:00,
2013-10-03 16:19:00,73.9,29.1,30.09,East,85,3.0,11.0,19,0.00,,,0.00,462.0,meteohub,2013-10-03 23:19:00,
2013-10-03 16:24:00,73.8,27.7,30.09,SW,221,1.0,11.0,18,0.00,,,0.00,450.0,meteohub,2013-10-03 23:24:00,
2013-10-03 16:29:00,74.1,27.9,30.09,WSW,257,0.0,10.0,18,0.00,,,0.00,434.0,meteohub,2013-10-03 23:29:00,
2013-10-03 16:34:00,74.3,28.0,30.09,ENE,61,1.0,8.0,18,0.00,,,0.00,420.0,meteohub,2013-10-03 23:34:00,
2013-10-03 16:39:00,73.9,27.7,30.09,ENE,78,2.0,8.0,18,0.00,,,0.00,406.0,meteohub,2013-10-03 23:39:00,
2013-10-03 16:44:00,73.8,28.9,30.09,ENE,70,3.0,8.0,19,0.00,,,0.00,388.0,meteohub,2013-10-03 23:44:00,
2013-10-03 16:49:00,73.0,28.4,30.09,East,84,3.0,7.0,19,0.00,,,0.00,374.0,meteohub,2013-10-03 23:49:00,
2013-10-03 16:55:00,72.5,27.9,30.09,ENE,78,2.0,9.0,19,0.00,,,0.00,359.0,meteohub,2013-10-03 23:55:00,
2013-10-03 17:00:00,72.3,27.7,30.09,East,83,3.0,9.0,19,0.00,,,0.00,345.0,meteohub,2013-10-04 00:00:00,
2013-10-03 17:05:00,72.3,27.7,30.09,NE,56,7.0,8.0,19,0.00,,,0.00,327.0,meteohub,2013-10-04 00:05:00,
2013-10-03 17:10:00,72.1,28.8,30.09,WSW,242,1.0,8.0,20,0.00,,,0.00,309.0,meteohub,2013-10-04 00:10:00,
2013-10-03 17:16:00,72.3,27.7,30.09,ENE,59,1.0,8.0,19,0.00,,,0.00,294.0,meteohub,2013-10-04 00:16:00,
2013-10-03 17:21:00,72.3,28.9,30.09,East,86,1.0,8.0,20,0.00,,,0.00,272.0,meteohub,2013-10-04 00:21:00,
2013-10-03 17:26:00,72.7,28.0,30.09,ENE,75,4.0,8.0,19,0.00,,,0.00,253.0,meteohub,2013-10-04 00:26:00,
2013-10-03 17:32:00,72.3,27.7,30.09,ENE,66,3.0,7.0,19,0.00,,,0.00,236.0,meteohub,2013-10-04 00:32:00,
2013-10-03 17:37:00,72.3,27.7,30.09,SSE,159,0.0,8.0,19,0.00,,,0.00,214.0,meteohub,2013-10-04 00:37:00,
2013-10-03 17:42:00,72.1,26.2,30.09,ENE,71,7.0,8.0,18,0.00,,,0.00,195.0,meteohub,2013-10-04 00:42:00,
2013-10-03 17:47:00,72.0,27.5,30.09,ENE,61,4.0,9.0,19,0.00,,,0.00,174.0,meteohub,2013-10-04 00:47:00,
2013-10-03 17:52:00,71.6,27.1,30.09,East,91,3.0,9.0,19,0.00,,,0.00,153.0,meteohub,2013-10-04 00:52:00,
2013-10-03 17:57:00,71.4,27.0,30.09,East,90,6.0,9.0,19,0.00,,,0.00,134.0,meteohub,2013-10-04 00:57:00,
2013-10-03 18:03:00,71.2,28.0,30.09,ENE,71,3.0,8.0,20,0.00,,,0.00,114.0,meteohub,2013-10-04 01:03:00,
2013-10-03 18:08:00,71.2,28.0,30.09,East,82,0.0,9.0,20,0.00,,,0.00,86.0,meteohub,2013-10-04 01:08:00,
2013-10-03 18:14:00,71.1,28.0,30.09,ENE,78,1.0,9.0,20,0.00,,,0.00,53.0,meteohub,2013-10-04 01:14:00,
2013-10-03 18:19:00,70.9,27.9,30.09,ENE,72,1.0,9.0,20,0.00,,,0.00,37.0,meteohub,2013-10-04 01:19:00,
2013-10-03 18:25:00,70.5,27.5,30.09,East,86,2.0,7.0,20,0.00,,,0.00,25.0,meteohub,2013-10-04 01:25:00,
2013-10-03 18:30:00,70.3,27.3,30.09,ENE,71,2.0,6.0,20,0.00,,,0.00,19.0,meteohub,2013-10-04 01:30:00,
2013-10-03 18:35:00,70.0,27.1,30.09,East,81,0.0,6.0,20,0.00,,,0.00,14.0,meteohub,2013-10-04 01:35:00,
2013-10-03 18:40:00,69.6,27.9,30.09,East,81,1.0,5.0,21,0.00,,,0.00,5.0,meteohub,2013-10-04 01:40:00,
2013-10-03 18:45:00,69.4,27.9,30.09,East,81,0.0,3.0,21,0.00,,,0.00,5.0,meteohub,2013-10-04 01:45:00,
2013-10-03 18:50:00,69.1,28.6,30.09,East,81,0.0,3.0,22,0.00,,,0.00,0.0,meteohub,2013-10-04 01:50:00,
2013-10-03 18:55:00,68.5,28.2,30.09,East,81,0.0,3.0,22,0.00,,,0.00,0.0,meteohub,2013-10-04 01:55:00,
2013-10-03 19:01:00,68.4,28.0,30.09,East,81,0.0,3.0,22,0.00,,,0.00,0.0,meteohub,2013-10-04 02:01:00,
2013-10-03 19:06:00,68.2,27.9,30.09,East,81,0.0,3.0,22,0.00,,,0.00,0.0,meteohub,2013-10-04 02:06:00,
2013-10-03 19:11:00,67.8,27.5,30.09,East,81,3.0,3.0,22,0.00,,,0.00,0.0,meteohub,2013-10-04 02:11:00,
2013-10-03 19:16:00,67.6,27.5,30.09,ENE,72,2.0,5.0,22,0.00,,,0.00,0.0,meteohub,2013-10-04 02:16:00,
2013-10-03 19:22:00,67.6,28.6,30.09,East,80,1.0,5.0,23,0.00,,,0.00,0.0,meteohub,2013-10-04 02:22:00,
2013-10-03 19:27:00,67.5,28.4,30.09,East,81,1.0,5.0,23,0.00,,,0.00,0.0,meteohub,2013-10-04 02:27:00,
2013-10-03 19:32:00,67.5,28.4,30.09,East,86,0.0,5.0,23,0.00,,,0.00,0.0,meteohub,2013-10-04 02:32:00,
2013-10-03 19:37:00,67.3,28.2,30.10,East,86,0.0,5.0,23,0.00,,,0.00,0.0,meteohub,2013-10-04 02:37:00,
2013-10-03 19:42:00,67.3,28.2,30.09,East,86,0.0,5.0,23,0.00,,,0.00,0.0,meteohub,2013-10-04 02:42:00,
2013-10-03 19:47:00,66.9,28.9,30.10,East,86,0.0,3.0,24,0.00,,,0.00,0.0,meteohub,2013-10-04 02:47:00,
2013-10-03 19:52:00,66.6,27.7,30.09,East,86,0.0,3.0,23,0.00,,,0.00,0.0,meteohub,2013-10-04 02:52:00,
2013-10-03 19:57:00,66.4,27.5,30.10,East,86,1.0,1.0,23,0.00,,,0.00,0.0,meteohub,2013-10-04 02:57:00,
2013-10-03 20:02:00,66.4,27.5,30.10,East,84,3.0,3.0,23,0.00,,,0.00,0.0,meteohub,2013-10-04 03:02:00,
2013-10-03 20:07:00,66.6,27.7,30.10,East,84,0.0,3.0,23,0.00,,,0.00,0.0,meteohub,2013-10-04 03:07:00,
2013-10-03 20:12:00,66.6,27.7,30.10,East,84,1.0,3.0,23,0.00,,,0.00,0.0,meteohub,2013-10-04 03:12:00,
2013-10-03 20:18:00,66.7,26.6,30.10,East,84,2.0,3.0,22,0.00,,,0.00,0.0,meteohub,2013-10-04 03:18:00,
2013-10-03 20:23:00,66.7,26.6,30.10,East,82,3.0,5.0,22,0.00,,,0.00,0.0,meteohub,2013-10-04 03:23:00,
2013-10-03 20:28:00,66.7,26.6,30.10,ENE,76,1.0,5.0,22,0.00,,,0.00,0.0,meteohub,2013-10-04 03:28:00,
2013-10-03 20:34:00,66.9,26.8,30.10,ENE,72,4.0,5.0,22,0.00,,,0.00,0.0,meteohub,2013-10-04 03:34:00,
2013-10-03 20:39:00,66.9,26.8,30.10,East,95,1.0,5.0,22,0.00,,,0.00,0.0,meteohub,2013-10-04 03:39:00,
2013-10-03 20:44:00,66.9,26.8,30.10,East,81,2.0,5.0,22,0.00,,,0.00,0.0,meteohub,2013-10-04 03:44:00,
2013-10-03 20:49:00,66.9,26.8,30.10,East,82,0.0,5.0,22,0.00,,,0.00,0.0,meteohub,2013-10-04 03:49:00,
2013-10-03 20:54:00,66.9,26.8,30.10,East,85,1.0,5.0,22,0.00,,,0.00,0.0,meteohub,2013-10-04 03:54:00,
2013-10-03 21:00:00,66.7,26.6,30.10,East,80,5.0,5.0,22,0.00,,,0.00,0.0,meteohub,2013-10-04 04:00:00,
2013-10-03 21:32:00,67.6,27.5,30.10,ENE,67,3.0,10.0,22,0.00,,,0.00,0.0,meteohub,2013-10-04 04:32:00,
2013-10-03 21:33:00,67.6,27.5,30.10,South,170,2.0,10.0,22,0.00,,,0.00,0.0,meteohub,2013-10-04 04:33:00,
2013-10-03 21:34:00,67.8,27.5,30.09,ESE,103,1.0,10.0,22,0.00,,,0.00,0.0,meteohub,2013-10-04 04:34:00,
2013-10-03 21:35:00,67.8,27.5,30.10,ENE,78,5.0,10.0,22,0.00,,,0.00,0.0,meteohub,2013-10-04 04:35:00,
2013-10-03 21:37:00,67.8,27.5,30.10,ENE,58,8.0,10.0,22,0.00,,,0.00,0.0,meteohub,2013-10-04 04:37:00,
2013-10-03 21:42:00,68.2,27.9,30.10,East,88,1.0,10.0,22,0.00,,,0.00,0.0,meteohub,2013-10-04 04:42:00,
2013-10-03 21:44:00,68.2,27.9,30.09,SSW,196,7.0,10.0,22,0.00,,,0.00,0.0,meteohub,2013-10-04 04:44:00,
2013-10-03 21:46:00,68.2,27.9,30.09,ENE,64,4.0,12.0,22,0.00,,,0.00,0.0,meteohub,2013-10-04 04:46:00,
2013-10-03 21:47:00,68.2,27.9,30.10,ENE,71,5.0,12.0,22,0.00,,,0.00,0.0,meteohub,2013-10-04 04:47:00,
2013-10-03 21:49:00,68.2,27.9,30.09,ESE,109,1.0,12.0,22,0.00,,,0.00,0.0,meteohub,2013-10-04 04:49:00,
2013-10-03 21:50:00,68.2,27.9,30.09,WSW,240,1.0,12.0,22,0.00,,,0.00,0.0,meteohub,2013-10-04 04:50:00,
2013-10-03 21:56:00,68.2,27.9,30.09,ENE,61,3.0,14.0,22,0.00,,,0.00,0.0,meteohub,2013-10-04 04:56:00,
2013-10-03 21:58:00,68.2,27.9,30.10,ENE,63,8.0,14.0,22,0.00,,,0.00,0.0,meteohub,2013-10-04 04:58:00,
2013-10-03 21:59:00,68.2,27.9,30.10,SE,132,2.0,14.0,22,0.00,,,0.00,0.0,meteohub,2013-10-04 04:59:00,
2013-10-03 22:02:00,68.2,27.9,30.10,East,92,2.0,14.0,22,0.00,,,0.00,0.0,meteohub,2013-10-04 05:02:00,
2013-10-03 22:03:00,68.2,27.9,30.09,ENE,68,9.0,14.0,22,0.00,,,0.00,0.0,meteohub,2013-10-04 05:03:00,
2013-10-03 22:08:00,68.2,28.9,30.10,East,86,6.0,14.0,23,0.00,,,0.00,0.0,meteohub,2013-10-04 05:08:00,
2013-10-03 22:12:00,68.2,27.9,30.10,ESE,108,2.0,14.0,22,0.00,,,0.00,0.0,meteohub,2013-10-04 05:12:00,
2013-10-03 22:17:00,68.0,28.8,30.10,WNW,284,4.0,14.0,23,0.00,,,0.00,0.0,meteohub,2013-10-04 05:17:00,
2013-10-03 22:18:00,68.0,28.8,30.10,SE,128,3.0,14.0,23,0.00,,,0.00,0.0,meteohub,2013-10-04 05:18:00,
2013-10-03 22:26:00,67.8,28.6,30.10,East,94,8.0,14.0,23,0.00,,,0.00,0.0,meteohub,2013-10-04 05:26:00,
2013-10-03 22:31:00,67.8,28.6,30.10,ENE,61,7.0,14.0,23,0.00,,,0.00,0.0,meteohub,2013-10-04 05:31:00,
2013-10-03 22:37:00,67.8,28.6,30.09,NNE,31,0.0,13.0,23,0.00,,,0.00,0.0,meteohub,2013-10-04 05:37:00,
2013-10-03 22:42:00,67.8,28.6,30.10,NNW,340,2.0,10.0,23,0.00,,,0.00,0.0,meteohub,2013-10-04 05:42:00,
2013-10-03 22:47:00,67.6,28.6,30.10,West,265,0.0,11.0,23,0.00,,,0.00,0.0,meteohub,2013-10-04 05:47:00,
2013-10-03 22:52:00,67.6,28.6,30.10,WNW,288,3.0,13.0,23,0.00,,,0.00,0.0,meteohub,2013-10-04 05:52:00,
2013-10-03 22:57:00,67.6,29.5,30.10,NE,34,3.0,13.0,24,0.00,,,0.00,0.0,meteohub,2013-10-04 05:57:00,
2013-10-03 23:02:00,67.5,28.4,30.10,ENE,57,5.0,13.0,23,0.00,,,0.00,0.0,meteohub,2013-10-04 06:02:00,
2013-10-03 23:07:00,67.5,29.5,30.10,NE,40,6.0,13.0,24,0.00,,,0.00,0.0,meteohub,2013-10-04 06:07:00,
2013-10-03 23:12:00,67.3,29.3,30.11,ENE,59,0.0,15.0,24,0.00,,,0.00,0.0,meteohub,2013-10-04 06:12:00,
2013-10-03 23:17:00,67.3,29.3,30.11,ESE,105,1.0,15.0,24,0.00,,,0.00,0.0,meteohub,2013-10-04 06:17:00,
2013-10-03 23:22:00,67.1,29.1,30.11,ENE,71,5.0,14.0,24,0.00,,,0.00,0.0,meteohub,2013-10-04 06:22:00,
2013-10-03 23:27:00,67.1,28.0,30.11,ENE,76,10.0,12.0,23,0.00,,,0.00,0.0,meteohub,2013-10-04 06:27:00,
2013-10-03 23:32:00,67.1,28.0,30.11,ENE,67,5.0,11.0,23,0.00,,,0.00,0.0,meteohub,2013-10-04 06:32:00,
2013-10-03 23:37:00,67.1,28.0,30.12,ENE,75,7.0,11.0,23,0.00,,,0.00,0.0,meteohub,2013-10-04 06:37:00,
2013-10-03 23:42:00,67.1,28.0,30.12,ENE,76,8.0,13.0,23,0.00,,,0.00,0.0,meteohub,2013-10-04 06:42:00,
2013-10-03 23:47:00,67.1,28.0,30.12,East,90,0.0,13.0,23,0.00,,,0.00,0.0,meteohub,2013-10-04 06:47:00,
2013-10-03 23:52:00,66.9,27.9,30.12,ENE,73,9.0,13.0,23,0.00,,,0.00,0.0,meteohub,2013-10-04 06:52:00,
2013-10-03 23:57:00,66.9,27.9,30.12,NE,53,5.0,13.0,23,0.00,,,0.00,0.0,meteohub,2013-10-04 06:57:00,